N0JY-4 Weather Reports


Display with metric or nautical units.
time (UTC)temp
F
wind
direction
speed
MPH
gust
MPH
rain 1hr
in
rain 24hr
in
rain mn
in
humidity
%
barometer
mb
20190425235628 81 330 6.0 4.0 0.00 1.70 0.00 1013.4
20190425234901 81 332 5.0 7.0 0.00 1.70 0.00 1013.3
20190425234135 82 326 4.0 7.0 0.00 1.70 0.00 1013.2
20190425233408 82 345 6.0 9.0 0.00 1.70 0.00 1013.2
20190425231912 82 323 9.0 7.0 0.00 1.70 0.00 1013.0
20190425231145 82 312 5.0 4.0 0.00 1.70 0.00 1013.0
20190425224919 82 350 7.0 8.0 0.00 1.70 0.00 1012.8
20190425224153 82 312 6.0 8.0 0.00 1.70 0.00 1012.7
20190425223426 83 300 4.0 6.0 0.00 1.70 0.00 1012.6
20190425221930 82 315 8.0 10.0 0.00 1.70 0.00 1012.3
20190425220433 82 326 5.0 4.0 0.00 1.70 0.00 1012.1
20190425215700 82 330 7.0 7.0 0.00 1.70 0.00 1012.1
20190425214933 82 311 4.0 7.0 0.00 1.70 0.00 1012.1
20190425213439 82 294 5.0 5.0 0.00 1.70 0.00 1012.0
20190425211942 82 264 0.0 0.0 0.00 1.70 0.00 1012.0
20190425210448 82 312 5.0 7.0 0.00 1.70 0.00 1011.9
20190425205713 82 273 3.0 7.0 0.00 1.70 0.00 1012.0
20190425203449 81 353 5.0 6.0 0.00 1.70 0.00 1011.9
20190425201952 81 357 8.0 2.0 0.00 1.70 0.00 1012.0
20190425201226 81 235 3.0 5.0 0.00 1.70 0.00 1012.0
20190425200456 81 259 7.0 8.0 0.00 1.70 0.00 1012.0
20190425195725 80 311 2.0 4.0 0.00 1.70 0.00 1012.0
20190425194958 80 354 4.0 5.0 0.00 1.70 0.00 1012.1
20190425194232 80 312 8.0 7.0 0.00 1.70 0.00 1012.1
20190425193504 80 291 4.0 5.0 0.00 1.70 0.00 1012.1
20190425192008 79 291 3.0 4.0 0.00 1.70 0.00 1011.9
20190425191238 78 328 7.0 7.0 0.00 1.70 0.00 1012.0
20190425190505 78 316 7.0 7.0 0.00 1.70 0.00 1012.0
20190425185002 78 4 6.0 3.0 0.00 1.70 0.00 1012.0
20190425184235 78 346 6.0 5.0 0.00 1.70 0.00 1011.8
20190425183507 77 290 5.0 4.0 0.00 1.70 0.00 1011.8
20190425182735 77 321 5.0 4.0 0.00 1.70 0.00 1011.9
20190425180513 76 293 4.0 6.0 0.00 1.70 0.00 1011.7
20190425174246 76 336 4.0 6.0 0.00 1.70 0.00 1011.8
20190425172742 74 197 2.0 5.0 0.00 1.70 0.00 1011.8
20190425165751 73 336 5.0 2.0 0.00 1.70 0.00 1011.8
20190425165023 73 263 6.0 8.0 0.00 1.70 0.00 1011.7
20190425162758 72 248 2.0 2.0 0.00 1.70 0.00 1011.7
20190425161302 72 208 1.0 0.0 0.00 1.70 0.00 1011.6
20190425160535 71 250 3.0 3.0 0.00 1.70 0.00 1011.5
20190425155804 70 297 5.0 2.0 0.00 1.70 0.00 1011.5
20190425153545 69 240 3.0 2.0 0.00 1.70 0.00 1011.4
20190425150555 67 291 4.0 3.0 0.00 1.70 0.00 1011.3
20190425145052 65 197 2.0 1.0 0.00 1.70 0.00 1011.1
20190425144323 65 314 2.0 2.0 0.00 1.70 0.00 1011.2
20190425143556 64 273 2.0 1.0 0.00 1.70 0.00 1011.2
20190425142823 63 207 3.0 4.0 0.00 1.70 0.00 1011.2
20190425142056 63 253 0.0 0.0 0.00 1.70 0.00 1011.2
20190425141405 62 226 0.0 0.0 0.00 1.70 0.00 1011.2
20190425141327 62 226 0.0 0.0 0.00 1.70 0.00 1011.2
20190425141003 61 235 0.0 0.0 0.00 1.70 0.00 1011.1
20190425140601 61 235 0.0 0.0 0.00 1.70 0.00 1011.1
20190425135901 60 211 0.0 0.0 0.00 1.70 0.00 1011.2
20190425135824 60 211 0.0 0.0 0.00 1.70 0.00 1011.2
20190425133559 60 232 1.0 0.0 0.00 1.70 0.00 1011.2
20190425132058 61 191 0.0 0.0 0.00 1.70 0.00 1011.2
20190425131325 61 191 0.0 0.0 0.00 1.70 0.00 1011.2
20190425130557 61 191 0.0 0.0 0.00 1.70 0.00 1011.1
20190425125825 60 191 0.0 0.0 0.00 1.70 0.00 1011.0
20190425125059 60 191 0.0 0.0 0.00 1.70 0.00 1011.1
20190425124332 58 191 0.0 0.0 0.00 1.70 0.00 1011.0
20190425123602 57 191 0.0 0.0 0.00 1.70 0.00 1010.9
20190425122102 56 191 0.0 0.0 0.00 1.70 0.00 1010.7
20190425121336 56 191 0.0 0.0 0.00 1.70 0.00 1010.7
20190425120707 56 191 0.0 0.0 0.00 1.70 0.00 1010.6
20190425120604 56 191 0.0 0.0 0.00 1.70 0.00 1010.6
20190425120437 56 191 0.0 0.0 0.00 1.70 0.00 1010.6
20190425115832 56 191 0.0 0.0 0.00 1.70 0.00 1010.6
20190425114133 56 191 0.0 0.0 0.00 1.70 0.00 1010.4
20190425113611 56 191 0.0 0.0 0.00 1.70 0.00 1010.4
20190425105849 56 191 0.0 0.0 0.00 1.70 0.00 1010.3
20190425094354 59 191 0.0 0.0 0.00 1.70 0.00 1010.3
20190425093628 59 191 0.0 0.0 0.00 1.70 0.00 1010.2
20190425092855 59 191 0.0 0.0 0.00 1.70 0.00 1010.2
20190425091228 60 253 0.0 0.0 0.00 1.70 0.00 1010.2
20190425090631 60 253 0.0 0.0 0.00 1.70 0.00 1010.2
20190425090049 60 253 0.0 0.0 0.00 1.70 0.00 1010.3
20190425085900 60 253 0.0 0.0 0.00 1.70 0.00 1010.3
20190425083117 60 210 0.0 0.0 0.00 1.70 0.00 1010.3
20190425082905 60 210 0.0 0.0 0.00 1.70 0.00 1010.3
20190425072913 61 229 0.0 0.0 0.00 1.70 0.00 1010.2
20190425065150 62 255 0.0 0.0 0.00 1.70 0.00 1010.3
20190425064422 62 243 0.0 0.0 0.00 1.70 0.00 1010.3
20190425063652 62 190 0.0 0.0 0.00 1.70 0.00 1010.2
20190425062919 62 267 0.0 0.0 0.00 1.70 0.00 1010.3
20190425061327 63 233 0.0 0.0 0.00 1.70 0.00 1010.5
20190425060658 63 233 0.0 0.0 0.00 1.70 0.00 1010.5
20190425052931 62 233 0.0 0.0 0.00 1.70 0.00 1010.7
20190425043719 62 207 1.0 0.0 0.00 2.20 1.70 1011.1
20190425042947 62 253 0.0 0.0 0.00 2.20 1.70 1011.1
20190425040721 62 246 0.0 0.0 0.00 2.20 1.70 1011.3
20190425035950 62 233 1.0 0.0 0.00 2.20 1.70 1011.4
20190425034452 62 293 0.0 0.0 0.00 2.20 1.70 1011.3
20190425033724 62 290 2.0 5.0 0.00 2.20 1.70 1011.2
20190425032223 63 276 1.0 0.0 0.00 2.20 1.70 1011.3
20190425025951 63 273 0.0 3.0 0.00 2.20 1.70 1011.2
20190425025224 63 167 5.0 0.0 0.00 2.20 1.70 1011.1
20190425024458 63 283 3.0 2.0 0.00 2.20 1.70 1011.1
20190425022957 63 250 1.0 0.0 0.00 2.20 1.70 1010.9
20190425022228 63 243 0.0 0.0 0.00 2.20 1.70 1010.8
20190425021503 63 218 1.0 0.0 0.00 2.20 1.70 1010.7
20190425020734 63 256 2.0 2.0 0.00 2.20 1.70 1010.4
20190425020002 63 253 1.0 3.0 0.00 2.20 1.70 1010.1
20190425013740 64 255 2.0 0.0 0.00 2.20 1.70 1009.6
20190425012242 64 300 2.0 0.0 0.00 2.20 1.70 1009.6
20190425004524 64 346 6.0 6.0 0.00 2.20 1.70 1008.4
20190425003758 64 346 4.0 4.0 0.00 2.20 1.70 1009.1
20190425002301 64 0 4.0 5.0 0.00 2.20 1.70 1009.1
20190425001528 64 349 3.0 4.0 0.00 2.20 1.70 1009.4
20190425000801 64 321 3.0 4.0 0.00 2.20 1.70 1009.5